• In Russia
  • List of Countries
  • For 7 days
  • Water Temperature
  • Satellite Maps
  • Weather Map
  • Weather Widgets
  • user-avatar
    Login

    Hourly Weather Perth

    Today, 25 May, Thursday

    Time Temperature Precipitation Wind Pressure Humidity
    00:00 +13°C° 0 mm 1 mps 764 mmHg 91%
    01:00 +13°C° 0 mm 1 mps 764 mmHg 91%
    02:00 +12°C° 0 mm 1 mps 764 mmHg 91%
    03:00 +12°C° 0 mm 2 mps 764 mmHg 91%
    04:00 +12°C° 0 mm 2 mps 764 mmHg 91%
    05:00 +12°C° 0 mm 2 mps 764 mmHg 91%
    06:00 +12°C° 0 mm 2 mps 764 mmHg 89%
    07:00 +13°C° 0 mm 2 mps 764 mmHg 88%
    08:00 +13°C° 0 mm 3 mps 764 mmHg 81%
    09:00 +16°C° 0 mm 3 mps 764 mmHg 72%
    10:00 +18°C° 0 mm 3 mps 764 mmHg 62%
    11:00 +21°C° 0 mm 3 mps 763 mmHg 52%
    12:00 +21°C° 0 mm 3 mps 763 mmHg 50%
    13:00 +22°C° 0 mm 3 mps 763 mmHg 48%
    14:00 +22°C° 0 mm 3 mps 762 mmHg 45%
    15:00 +21°C° 0 mm 2 mps 762 mmHg 53%
    16:00 +20°C° 0 mm 2 mps 762 mmHg 60%
    17:00 +18°C° 0 mm 2 mps 762 mmHg 67%
    18:00 +17°C° 0 mm 2 mps 762 mmHg 74%
    19:00 +16°C° 0 mm 2 mps 763 mmHg 82%
    20:00 +15°C° 0 mm 2 mps 763 mmHg 89%
    21:00 +15°C° 0 mm 2 mps 763 mmHg 89%
    22:00 +14°C° 0 mm 2 mps 763 mmHg 90%
    23:00 +14°C° 0 mm 2 mps 763 mmHg 90%

    Tomorrow, 26 May, Friday

    Time Temperature Precipitation Wind Pressure Humidity
    00:00 +14°C° 0 mm 2 mps 763 mmHg 91%
    01:00 +13°C° 0 mm 3 mps 763 mmHg 92%
    02:00 +13°C° 0 mm 3 mps 763 mmHg 93%
    03:00 +13°C° 0.3 mm 3 mps 763 mmHg 93%
    04:00 +14°C° 0.3 mm 3 mps 763 mmHg 93%
    05:00 +14°C° 0.3 mm 3 mps 763 mmHg 94%
    06:00 +14°C° 0.1 mm 3 mps 763 mmHg 93%
    07:00 +16°C° 0.1 mm 3 mps 763 mmHg 93%
    08:00 +16°C° 0.1 mm 3 mps 763 mmHg 92%
    09:00 +16°C° 0 mm 3 mps 764 mmHg 83%
    10:00 +17°C° 0 mm 3 mps 764 mmHg 74%
    11:00 +18°C° 0 mm 3 mps 764 mmHg 65%
    12:00 +19°C° 0 mm 3 mps 764 mmHg 61%
    13:00 +19°C° 0 mm 3 mps 764 mmHg 57%
    14:00 +19°C° 0 mm 3 mps 763 mmHg 53%
    15:00 +18°C° 0 mm 3 mps 763 mmHg 56%
    16:00 +18°C° 0 mm 3 mps 764 mmHg 59%
    17:00 +17°C° 0 mm 3 mps 764 mmHg 62%
    18:00 +14°C° 0 mm 3 mps 764 mmHg 67%
    19:00 +13°C° 0 mm 3 mps 765 mmHg 71%
    20:00 +12°C° 0 mm 3 mps 765 mmHg 75%
    21:00 +11°C° 0 mm 3 mps 765 mmHg 76%
    22:00 +11°C° 0 mm 3 mps 766 mmHg 77%
    23:00 +10°C° 0 mm 3 mps 766 mmHg 79%

    Day after tomorrow, 27 May, Saturday

    Time Temperature Precipitation Wind Pressure Humidity
    00:00 +10°C° 0 mm 3 mps 766 mmHg 80%
    01:00 +10°C° 0 mm 3 mps 766 mmHg 82%
    02:00 +9°C° 0 mm 3 mps 766 mmHg 83%
    03:00 +9°C° 0 mm 3 mps 766 mmHg 85%
    04:00 +9°C° 0 mm 3 mps 766 mmHg 87%
    05:00 +9°C° 0 mm 3 mps 766 mmHg 89%
    06:00 +9°C° 0 mm 3 mps 767 mmHg 88%
    07:00 +9°C° 0 mm 3 mps 767 mmHg 88%
    08:00 +9°C° 0 mm 3 mps 768 mmHg 88%
    09:00 +11°C° 0 mm 3 mps 768 mmHg 77%
    10:00 +13°C° 0 mm 3 mps 768 mmHg 67%
    11:00 +16°C° 0 mm 3 mps 768 mmHg 56%
    12:00 +17°C° 0 mm 3 mps 767 mmHg 52%
    13:00 +18°C° 0 mm 3 mps 767 mmHg 49%
    14:00 +18°C° 0 mm 2 mps 766 mmHg 45%
    15:00 +17°C° 0 mm 2 mps 766 mmHg 49%
    16:00 +16°C° 0 mm 2 mps 766 mmHg 54%
    17:00 +15°C° 0 mm 2 mps 766 mmHg 58%
    18:00 +13°C° 0 mm 3 mps 767 mmHg 61%
    19:00 +12°C° 0 mm 3 mps 767 mmHg 64%
    20:00 +11°C° 0 mm 3 mps 768 mmHg 68%
    21:00 +11°C° 0 mm 3 mps 768 mmHg 69%
    22:00 +10°C° 0 mm 3 mps 768 mmHg 71%
    23:00 +10°C° 0 mm 3 mps 768 mmHg 73%

    28 May, Sunday

    Time Temperature Precipitation Wind Pressure Humidity
    00:00 +10°C° 0 mm 3 mps 768 mmHg 74%
    01:00 +9°C° 0 mm 3 mps 768 mmHg 76%
    02:00 +9°C° 0 mm 3 mps 768 mmHg 77%
    03:00 +9°C° 0 mm 3 mps 768 mmHg 79%
    04:00 +9°C° 0 mm 3 mps 768 mmHg 80%
    05:00 +8°C° 0 mm 3 mps 768 mmHg 82%
    06:00 +9°C° 0 mm 3 mps 768 mmHg 81%
    07:00 +9°C° 0 mm 3 mps 769 mmHg 80%
    08:00 +9°C° 0 mm 3 mps 769 mmHg 79%
    09:00 +12°C° 0 mm 3 mps 769 mmHg 69%
    10:00 +14°C° 0 mm 3 mps 769 mmHg 60%
    11:00 +17°C° 0 mm 3 mps 769 mmHg 50%
    12:00 +18°C° 0 mm 3 mps 768 mmHg 47%
    13:00 +19°C° 0 mm 3 mps 767 mmHg 44%
    14:00 +20°C° 0 mm 2 mps 766 mmHg 41%
    15:00 +18°C° 0 mm 2 mps 766 mmHg 46%
    16:00 +17°C° 0 mm 2 mps 766 mmHg 50%
    17:00 +16°C° 0 mm 2 mps 766 mmHg 55%
    18:00 +15°C° 0 mm 2 mps 766 mmHg 59%
    19:00 +13°C° 0 mm 2 mps 767 mmHg 62%
    20:00 +11°C° 0 mm 3 mps 767 mmHg 65%
    21:00 +11°C° 0 mm 3 mps 767 mmHg 66%
    22:00 +11°C° 0 mm 3 mps 767 mmHg 67%
    23:00 +10°C° 0 mm 3 mps 767 mmHg 68%

    29 May, Monday

    Time Temperature Precipitation Wind Pressure Humidity
    00:00 +10°C° 0 mm 3 mps 767 mmHg 69%
    01:00 +10°C° 0 mm 3 mps 767 mmHg 70%
    02:00 +10°C° 0 mm 3 mps 766 mmHg 70%
    03:00 +10°C° 0 mm 3 mps 766 mmHg 71%
    04:00 +9°C° 0 mm 3 mps 766 mmHg 72%
    05:00 +9°C° 0 mm 2 mps 766 mmHg 73%
    06:00 +9°C° 0 mm 2 mps 766 mmHg 72%
    07:00 +10°C° 0 mm 2 mps 767 mmHg 70%
    08:00 +10°C° 0 mm 2 mps 767 mmHg 69%
    09:00 +14°C° 0 mm 2 mps 767 mmHg 61%
    10:00 +16°C° 0 mm 2 mps 767 mmHg 54%
    11:00 +19°C° 0 mm 2 mps 767 mmHg 46%
    12:00 +20°C° 0 mm 2 mps 766 mmHg 44%
    13:00 +21°C° 0 mm 2 mps 765 mmHg 41%
    14:00 +23°C° 0 mm 2 mps 765 mmHg 39%
    15:00 +21°C° 0 mm 2 mps 765 mmHg 44%
    16:00 +19°C° 0 mm 2 mps 765 mmHg 50%
    17:00 +18°C° 0 mm 3 mps 765 mmHg 55%
    18:00 +17°C° 0 mm 3 mps 765 mmHg 56%
    19:00 +17°C° 0 mm 4 mps 766 mmHg 56%
    20:00 +15°C° 0 mm 5 mps 766 mmHg 57%
    21:00 +14°C° 0 mm 5 mps 766 mmHg 57%
    22:00 +14°C° 0 mm 5 mps 766 mmHg 57%
    23:00 +14°C° 0 mm 5 mps 765 mmHg 57%

    30 May, Tuesday

    Time Temperature Precipitation Wind Pressure Humidity
    00:00 +14°C° 0 mm 5 mps 765 mmHg 58%
    01:00 +13°C° 0 mm 5 mps 765 mmHg 60%
    02:00 +13°C° 0 mm 5 mps 765 mmHg 61%
    03:00 +13°C° 0 mm 5 mps 765 mmHg 62%
    04:00 +13°C° 0 mm 4 mps 765 mmHg 63%
    05:00 +13°C° 0 mm 4 mps 765 mmHg 64%
    06:00 +13°C° 0 mm 4 mps 765 mmHg 64%
    07:00 +13°C° 0 mm 4 mps 765 mmHg 64%
    08:00 +13°C° 0 mm 4 mps 765 mmHg 64%
    09:00 +17°C° 0 mm 4 mps 765 mmHg 57%
    10:00 +19°C° 0 mm 4 mps 765 mmHg 50%
    11:00 +22°C° 0 mm 4 mps 765 mmHg 43%
    12:00 +24°C° 0 mm 3 mps 764 mmHg 40%
    13:00 +26°C° 0 mm 3 mps 764 mmHg 36%
    14:00 +27°C° 0 mm 3 mps 763 mmHg 33%
    15:00 +26°C° 0 mm 2 mps 763 mmHg 38%
    16:00 +24°C° 0 mm 2 mps 763 mmHg 42%
    17:00 +23°C° 0 mm 2 mps 764 mmHg 47%
    18:00 +21°C° 0 mm 2 mps 764 mmHg 47%
    19:00 +20°C° 0 mm 3 mps 764 mmHg 47%
    20:00 +19°C° 0 mm 4 mps 764 mmHg 46%
    21:00 +19°C° 0 mm 4 mps 764 mmHg 46%
    22:00 +19°C° 0 mm 4 mps 764 mmHg 46%
    23:00 +19°C° 0 mm 4 mps 764 mmHg 46%
    Show more